Location: Roswell
(33.3943°N, 104.5230°W)
Time: 11:10:49
(UTC+00:00)

Tiangong - Visible Passes

Search period start: 11 October 2024 00:00
Search period end: 21 October 2024 00:00
Orbit: 372 x 377 km, 41.5° (Epoch: 11 October)

Date Brightness Start Highest point End Pass type
(mag) Time Alt. Az. Time Alt. Az. Time Alt. Az.
14 Oct 0.5 12:19:09 10° S 12:21:20 18° SE 12:23:32 10° E visible
16 Oct -0.5 11:48:42 16° SSW 11:50:33 30° SE 11:53:18 10° E visible
17 Oct 1.3 10:48:29 10° ESE 10:48:29 10° ESE 10:48:36 10° ESE visible
17 Oct -2.2 12:20:28 13° WSW 12:23:07 71° NNW 12:26:11 10° ENE visible
18 Oct -0.8 11:19:55 38° E 11:19:55 38° E 11:22:06 10° ENE visible
19 Oct -1.8 11:51:03 42° NW 11:51:25 45° NNW 11:54:22 10° NE visible
20 Oct 1.4 10:49:59 11° ENE 10:49:59 11° ENE 10:50:04 10° ENE visible
20 Oct -0.6 12:21:54 14° WNW 12:23:46 22° NNW 12:26:15 10° NE visible
